GFSNW_700_rhum_120.txt.gz
RH
33 14 10 13 12 13 14 17 21 25 32 38 42 58 70 81 87 86 89 85 85 91 93 87 89 92 91 91 94 95 90 95 95 76 77 87 91 92 97 97 96 99 89 83
12 35 11 10 12 11 12 15 20 26 32 38 41 52 60 70 72 74 78 86 84 79 85 89 87 87 85 81 79 80 78 89 95 69 73 79 80 80 87 99 96 97 76 82
34 20 35 10 9 10 12 14 17 22 28 32 40 46 50 54 60 58 59 69 69 68 68 67 67 68 67 68 70 76 80 73 68 67 65 69 71 70 78 91 100 81 74 74
80 17 30 35 9 9 10 12 16 18 21 26 32 37 40 42 42 46 47 47 49 47 48 47 47 51 58 62 62 64 69 62 56 47 46 51 55 56 68 72 76 84 71 67
80 68 15 35 34 9 9 10 13 16 19 22 25 28 34 37 35 33 33 38 38 37 37 36 36 36 41 47 48 54 62 64 58 30 30 41 37 33 43 60 68 67 63 61
77 84 46 17 38 34 12 8 10 11 14 17 20 22 24 28 31 36 35 30 30 31 30 31 32 34 34 35 40 49 53 58 60 58 35 36 34 14 21 42 50 51 52 39
81 77 86 26 23 38 38 27 10 11 12 13 16 16 18 22 25 28 31 35 33 29 31 30 28 25 25 28 34 43 50 52 50 46 36 48 20 17 22 35 37 36 38 39
70 84 87 77 22 26 40 38 41 30 11 11 13 15 15 16 18 20 24 28 31 35 32 27 22 23 26 24 29 36 50 64 59 54 61 22 10 14 19 27 22 30 32 40
62 89 90 84 57 24 30 40 38 39 43 24 15 12 15 16 16 17 17 23 25 30 36 34 37 33 27 29 32 34 44 54 64 64 59 33 13 17 20 23 31 22 24 31
55 79 92 96 84 50 26 30 36 38 38 40 42 35 15 13 15 18 17 18 24 31 37 51 44 42 38 39 38 34 40 55 72 84 71 25 10 12 16 30 20 20 21 27
56 70 88 100 89 86 51 25 30 29 23 28 32 36 34 30 16 15 20 23 20 28 40 47 43 54 41 36 30 28 29 32 37 75 82 47 11 16 24 22 24 29 31 30
61 74 96 100 96 93 88 58 26 26 36 28 25 26 28 36 36 20 16 19 21 24 27 32 40 45 42 35 37 25 28 21 22 20 15 13 14 20 22 23 22 23 22 22
72 87 100 100 100 95 94 90 66 29 18 24 33 25 20 24 34 24 15 14 21 21 24 35 46 37 37 45 30 29 25 24 24 20 13 14 15 18 18 20 20 18 19 20
65 91 100 100 100 99 100 97 92 73 42 27 19 25 39 37 34 34 28 16 18 23 28 38 38 32 34 27 31 34 30 23 24 20 14 19 18 18 17 18 19 16 13 15
67 92 98 99 100 100 100 100 100 97 76 50 36 30 27 28 37 40 36 24 20 25 29 36 36 30 36 38 33 21 22 22 24 21 28 30 30 27 17 15 14 15 14 14
88 86 97 98 99 100 100 98 100 99 90 78 66 56 40 26 22 32 40 37 43 52 58 51 39 30 40 47 46 22 22 26 28 26 29 28 29 25 22 15 14 13 11 11
99 100 100 99 99 99 99 99 98 100 99 91 85 70 53 35 26 24 32 43 51 53 56 50 41 34 47 41 25 16 20 24 26 28 27 25 19 15 18 22 20 19 18 18
100 100 100 100 100 99 97 99 99 100 100 100 96 79 76 63 48 34 30 33 40 48 56 57 48 47 46 34 14 16 22 22 22 26 30 29 25 20 18 17 14 14 14 12
96 98 99 99 99 99 97 99 99 99 99 99 98 84 76 68 55 45 39 38 38 44 38 37 56 44 28 9 12 15 21 26 30 30 33 33 34 28 21 15 13 16 22 22
98 99 98 98 98 99 100 98 98 98 98 98 100 97 74 75 70 56 55 64 52 54 45 41 57 42 16 12 15 17 22 26 30 35 38 37 36 29 20 16 15 18 15 11
98 98 98 98 99 98 98 97 96 99 100 100 97 89 73 71 79 89 87 90 65 63 60 60 63 52 26 18 19 20 18 18 20 33 44 43 44 33 18 17 18 19 16 12
98 98 98 98 98 97 97 95 93 93 95 93 81 61 70 89 90 98 96 95 93 66 72 73 54 39 25 23 36 34 21 17 18 23 36 48 43 23 22 20 21 20 16 12
98 98 98 98 96 97 95 91 98 99 82 73 62 64 74 85 94 97 95 93 68 74 66 57 49 42 32 29 29 26 21 20 20 22 32 31 27 26 25 26 22 18 16 12
100 98 96 96 96 91 68 57 60 68 70 69 68 68 72 89 97 97 95 84 73 64 67 53 47 38 36 33 31 28 28 26 24 24 25 27 29 31 29 30 29 24 15 10
98 97 94 95 87 71 64 68 68 67 70 72 74 79 90 95 96 95 93 82 69 63 51 40 37 31 34 31 23 25 27 28 28 28 29 30 29 31 35 36 35 24 11 8
98 97 96 87 74 66 64 78 72 68 66 82 95 96 96 96 95 94 82 78 64 52 48 42 50 47 41 33 33 26 28 31 30 32 30 32 34 36 37 41 36 17 9 8
96 94 85 95 88 81 82 77 80 84 94 94 94 95 90 97 94 85 72 64 54 53 50 57 56 56 41 41 40 36 34 32 32 33 46 59 51 44 53 54 29 11 8 8

GFSNW_700_rhum_123.txt.gz
RH
72 14 37 8 11 13 17 21 24 30 34 38 42 49 56 65 72 73 79 82 93 100 92 98 100 100 83 78 78 90 90 100 98 89 90 79 98 100 98 98 98 97 91 78
73 61 16 34 8 12 14 20 24 26 27 32 35 43 48 51 55 59 61 65 64 69 76 95 72 72 71 71 73 98 92 96 92 80 72 74 82 96 100 96 98 92 89 76
68 76 43 23 30 8 13 16 19 24 26 25 28 32 40 42 44 47 49 52 51 52 53 53 60 62 57 58 60 65 74 93 94 76 65 72 80 83 92 94 97 85 72 63
56 66 74 28 29 24 9 12 17 19 22 23 24 26 28 34 36 35 35 36 38 40 60 42 43 41 43 46 53 56 60 78 69 46 39 46 65 71 75 82 69 82 65 67
60 56 65 75 19 34 22 10 13 18 20 22 24 23 26 24 27 31 31 30 31 34 37 36 55 35 41 67 41 50 48 57 73 32 55 34 32 28 36 60 70 78 60 47
50 61 57 75 75 18 35 25 10 12 16 18 21 22 23 24 24 24 29 29 29 29 30 28 33 35 36 39 46 67 69 57 86 64 48 34 27 23 20 19 24 40 70 47
37 63 58 67 86 54 20 36 35 16 12 15 15 16 19 22 22 24 24 28 32 28 31 32 30 25 23 27 32 43 71 78 90 78 48 55 28 16 13 14 23 32 35 35
31 64 60 69 85 86 35 24 40 39 37 25 13 15 14 16 18 20 23 24 24 28 28 25 31 41 30 27 31 40 55 92 82 71 52 29 20 14 14 17 14 18 19 28
36 64 60 76 78 91 85 34 26 37 42 35 37 32 14 15 15 15 14 18 21 23 26 33 58 37 37 46 39 42 58 72 94 68 64 35 25 14 16 19 29 22 22 26
62 72 63 72 83 92 87 81 37 27 32 28 32 38 41 39 17 16 14 14 18 23 31 64 65 53 40 42 51 42 41 79 89 81 71 50 26 10 13 26 30 22 22 22
87 79 68 66 81 98 89 88 82 51 27 28 31 25 25 32 39 41 27 22 18 22 32 58 69 58 57 33 29 26 30 54 72 72 68 61 10 10 12 19 18 18 17 20
95 91 75 70 84 100 99 92 89 84 73 43 27 31 34 34 26 30 40 32 20 23 26 36 47 35 36 33 40 32 29 20 37 30 24 14 13 15 16 15 15 16 17 16
99 96 88 83 99 100 100 100 94 93 86 79 64 31 29 36 33 28 27 36 34 23 28 32 39 33 34 54 39 27 18 20 22 20 11 13 16 18 19 21 19 15 14 15
83 89 92 89 99 99 100 100 100 97 99 90 75 62 46 30 28 40 40 37 39 31 28 40 42 38 33 30 33 29 34 29 26 22 19 22 23 26 29 31 24 19 17 17
87 86 92 92 99 99 100 99 100 100 99 97 90 82 81 73 61 44 36 36 44 41 30 38 46 39 42 39 38 26 22 21 27 25 24 26 26 27 32 31 21 16 15 14
93 92 91 96 100 99 100 98 100 100 100 99 95 84 74 75 77 63 31 27 30 54 46 32 38 45 55 59 49 26 19 18 19 23 25 24 25 28 26 21 18 16 17 16
88 97 100 100 98 99 100 100 98 99 100 100 100 95 83 75 63 45 43 47 37 50 60 50 51 55 71 65 32 18 17 16 21 20 25 19 24 27 22 17 16 18 16 15
100 99 98 99 100 100 99 99 100 99 99 99 98 94 89 77 76 74 68 56 44 45 57 49 43 68 66 42 8 9 12 20 21 19 22 24 26 27 22 19 19 18 14 14
98 99 99 98 98 99 99 100 99 99 100 98 99 98 92 84 72 70 67 62 55 60 58 53 65 75 60 38 31 26 22 21 25 26 26 27 28 29 29 30 25 19 15 16
94 98 98 98 91 100 100 98 98 98 99 100 99 100 94 85 69 70 68 60 61 66 69 67 68 64 51 43 48 43 33 25 27 28 32 32 34 37 36 34 28 20 17 17
97 98 98 98 98 100 98 97 97 96 98 96 88 97 91 84 84 82 82 80 85 85 82 84 75 70 46 32 38 45 37 29 26 24 30 42 44 44 36 36 33 23 21 18
95 100 98 98 98 98 97 97 95 84 97 96 94 68 67 88 94 99 96 94 92 88 97 88 74 58 49 47 45 39 34 40 36 31 31 40 58 44 44 42 27 24 23 21
97 97 97 97 97 97 96 90 86 85 74 70 70 67 74 95 96 97 96 96 95 94 84 74 62 50 50 48 46 38 33 31 24 22 24 34 57 53 53 38 31 30 30 30
100 97 97 96 96 93 75 62 60 60 67 70 75 75 86 95 96 97 96 97 96 75 71 62 52 32 34 36 34 28 27 28 25 24 22 28 49 56 45 36 35 36 34 36
100 98 96 95 86 76 69 68 72 70 69 75 78 84 89 95 98 95 96 96 91 78 61 54 41 63 63 54 37 34 32 29 28 27 26 26 30 36 38 42 46 45 48 46
100 96 87 82 77 71 57 51 65 71 76 93 97 97 97 96 94 96 93 95 74 59 55 50 74 81 60 58 47 40 34 31 30 30 30 34 35 43 56 63 58 54 53 46
99 74 64 69 94 94 99 95 92 96 98 95 98 96 92 96 96 92 88 72 50 52 57 63 76 89 68 80 87 46 44 38 33 34 34 35 40 50 63 68 65 62 64 43

GFSNW_700_rhum_126.txt.gz
RH
61 73 29 36 10 11 15 22 23 31 34 36 42 48 52 54 54 55 57 58 76 88 79 91 95 93 88 76 79 100 96 96 95 83 93 89 98 82 86 90 99 96 98 72
56 55 70 27 35 9 12 14 20 26 32 31 35 43 54 53 53 52 55 61 64 68 91 94 78 80 66 63 62 64 69 94 88 84 82 82 75 68 80 93 97 93 91 70
46 46 56 70 24 34 9 12 14 19 25 28 30 32 39 45 51 53 51 50 49 49 60 55 72 76 50 50 51 56 54 52 62 75 68 72 76 81 85 90 95 81 85 60
19 33 53 58 74 21 34 9 12 14 19 21 23 24 25 30 35 37 40 39 37 39 61 52 54 39 41 35 41 46 52 43 48 40 32 32 36 46 56 81 70 88 40 67
10 18 24 60 62 74 24 34 10 12 13 18 21 20 22 21 21 26 25 29 29 30 30 40 38 36 41 52 37 44 48 47 50 31 34 56 55 35 34 46 56 66 39 33
8 16 20 44 58 77 50 26 36 15 11 12 17 19 20 23 22 21 20 24 26 28 28 28 28 31 31 35 38 44 74 80 84 70 38 43 24 13 21 20 20 21 45 17
20 20 33 47 62 68 84 34 28 40 33 18 12 12 16 20 22 24 23 25 28 25 31 32 32 26 23 26 27 38 55 78 89 86 60 77 33 30 24 20 17 25 24 24
55 42 46 62 68 68 91 80 31 28 36 41 40 34 12 13 16 17 20 22 24 26 27 25 25 28 40 39 28 31 43 56 77 84 70 36 19 15 15 14 12 21 29 26
70 67 64 76 72 68 87 92 79 42 26 21 37 38 39 24 14 14 12 14 16 18 24 32 42 42 37 40 43 38 48 62 85 79 72 66 23 21 14 11 11 16 18 17
70 82 87 84 77 73 79 93 91 84 60 37 26 28 31 40 38 39 20 13 14 17 24 39 52 51 42 33 47 44 52 91 71 87 87 41 16 20 14 17 15 20 16 12
80 93 100 96 84 80 88 94 93 88 85 77 63 40 29 31 31 30 35 40 33 20 28 46 54 60 54 42 30 29 25 33 61 89 84 62 10 10 12 12 12 13 14 15
96 96 98 99 99 90 87 98 100 97 84 82 86 82 72 46 27 38 39 34 36 34 22 31 54 64 48 34 35 26 30 20 37 27 11 8 9 10 12 13 13 16 16 16
98 93 89 92 94 96 97 100 100 100 99 90 81 77 65 57 48 38 38 37 37 35 45 39 39 37 37 47 37 31 30 26 24 23 15 19 19 22 19 21 21 23 28 25
97 100 95 86 88 100 100 100 100 100 99 98 94 84 89 60 68 46 40 36 32 41 47 52 45 40 33 31 29 33 26 29 33 30 20 23 24 23 23 24 26 27 28 18
96 86 95 96 92 100 100 100 99 100 100 99 96 89 82 87 84 85 80 72 60 50 46 46 46 42 45 39 37 29 22 24 30 26 27 27 25 24 26 28 28 28 26 19
96 84 96 97 100 99 99 100 97 99 100 99 98 91 86 86 82 78 78 82 73 65 53 41 40 34 56 61 42 17 20 16 20 19 26 27 28 27 24 29 30 25 17 18
100 94 99 100 98 99 100 100 98 99 99 99 99 94 81 78 77 75 81 66 60 64 66 60 53 46 63 80 42 34 38 41 38 27 24 28 26 31 32 34 33 28 18 19
100 90 100 100 97 99 98 98 98 97 99 100 100 97 95 81 78 78 74 72 75 72 68 68 63 66 68 74 41 46 51 54 50 36 25 21 26 29 28 29 33 31 18 20
99 94 93 98 98 98 99 99 98 98 99 98 100 99 99 97 86 69 78 82 83 79 76 69 74 75 79 41 44 47 51 56 56 54 49 40 26 28 29 31 32 23 23 24
99 97 97 97 97 99 98 98 98 98 97 98 91 100 99 97 91 86 77 73 71 69 69 73 75 69 56 42 50 49 41 43 52 50 42 50 42 36 34 38 36 30 30 27
82 97 97 96 96 98 97 97 98 97 88 78 70 82 88 90 93 96 96 97 87 85 86 96 86 77 47 47 46 44 39 43 44 38 40 33 34 36 36 42 41 35 32 32
72 74 98 97 97 97 96 96 96 88 86 83 77 74 68 91 100 100 97 96 96 89 99 99 84 61 53 54 51 49 51 49 40 38 33 33 37 41 42 50 43 34 36 27
58 81 100 100 96 96 96 94 91 91 73 68 69 73 79 99 100 97 95 96 96 98 96 82 66 60 54 39 37 35 33 34 35 36 35 30 29 34 53 47 39 45 37 32
80 90 98 96 95 94 74 65 65 60 67 70 79 91 94 96 97 97 96 96 96 96 86 61 57 55 54 53 55 55 54 48 31 28 27 25 24 32 51 50 52 46 38 47
100 99 94 87 57 73 72 70 84 82 87 97 96 97 97 97 97 95 96 96 96 80 56 58 61 60 72 86 92 89 69 50 41 33 28 25 24 37 52 56 52 44 60 61
96 93 81 65 71 82 95 95 96 96 96 97 97 96 97 96 94 94 94 95 79 57 62 74 85 87 94 94 86 84 83 65 43 35 32 29 28 34 45 48 51 61 62 61
96 86 73 79 76 70 78 90 95 98 96 94 99 99 91 96 97 96 94 73 52 53 63 86 87 93 95 92 87 86 92 90 79 47 37 36 36 39 45 52 54 60 63 68

GFSNW_700_rhum_129.txt.gz
RH
17 24 53 67 25 12 11 13 16 22 30 35 34 40 42 48 47 45 51 64 70 79 72 81 78 83 74 70 71 70 88 97 89 81 96 94 88 86 85 83 97 95 98 69
8 10 17 48 68 24 12 11 13 14 18 28 37 41 46 51 53 53 52 58 66 69 75 84 73 64 61 59 59 60 67 78 78 88 89 88 88 76 79 93 100 99 86 56
8 8 8 16 55 70 22 11 12 13 14 18 24 32 41 43 45 47 48 50 48 55 62 62 73 71 55 44 45 55 57 60 52 59 71 70 77 72 77 87 91 83 64 41
15 20 12 12 36 60 66 27 9 12 15 15 16 19 25 32 36 36 35 35 33 31 42 56 65 53 45 45 50 45 47 33 33 29 27 29 31 35 43 81 75 81 35 38
44 43 40 20 28 58 74 38 31 13 11 12 16 18 15 18 21 25 28 28 26 27 26 26 26 31 39 46 42 47 50 45 49 24 18 36 38 24 31 34 39 48 32 23
57 60 57 44 37 60 70 73 30 32 20 11 11 14 17 16 16 18 18 22 26 25 26 28 29 28 28 34 40 51 66 65 71 46 34 30 22 13 25 22 20 19 31 6
59 61 61 64 56 64 72 87 65 29 31 33 26 12 10 13 15 18 18 20 20 20 24 25 27 25 21 24 31 49 61 86 94 71 57 70 13 19 18 18 12 14 10 8
57 61 59 70 72 76 74 88 86 61 39 26 35 38 39 25 12 12 13 15 15 17 21 22 21 18 21 31 36 38 40 68 78 74 81 28 13 11 10 10 6 6 7 9
58 60 57 65 84 85 79 82 98 87 76 57 35 28 35 37 36 25 16 21 17 16 17 19 27 20 26 33 38 35 37 64 80 94 82 70 11 14 13 15 8 7 8 10
66 61 63 68 85 93 84 86 98 100 92 82 69 44 30 29 35 40 36 30 26 20 20 23 28 28 28 30 36 34 56 98 88 100 98 28 10 13 17 14 8 10 10 11
73 71 68 77 84 89 97 92 94 100 98 91 88 83 72 55 38 38 41 40 27 37 32 24 25 39 35 38 34 27 28 31 54 100 100 49 9 9 14 12 12 14 15 16
82 81 92 86 89 97 85 94 99 100 95 98 95 84 87 91 85 70 44 39 40 36 31 27 29 44 43 31 31 24 30 18 19 24 11 10 9 14 17 21 23 21 20 21
95 93 100 100 92 94 88 81 99 100 98 95 84 97 94 85 80 69 58 47 40 42 46 55 48 47 43 41 30 27 25 24 28 27 14 17 22 24 26 28 26 26 24 27
93 98 100 100 100 98 99 98 98 99 100 96 74 86 92 98 99 82 74 69 56 51 47 54 62 58 52 46 41 33 30 29 27 25 15 20 22 30 31 28 26 26 28 28
98 92 97 98 100 100 100 98 100 100 100 100 95 86 92 96 93 94 94 100 100 82 67 65 60 56 62 64 60 43 39 36 33 30 28 25 27 25 28 28 29 30 31 30
84 79 88 92 99 98 100 99 98 98 99 100 98 84 72 72 79 90 92 90 97 94 87 75 72 70 74 83 75 47 65 68 53 54 54 53 49 33 20 25 28 31 32 31
91 98 91 98 98 98 99 98 99 97 99 98 99 98 87 68 67 65 74 88 97 98 98 95 86 71 80 88 84 40 56 51 50 50 54 55 54 43 27 25 27 28 30 30
95 96 96 98 98 98 98 100 98 98 98 99 99 99 99 90 80 74 74 77 82 86 87 90 74 75 79 88 51 42 46 51 52 53 58 59 61 43 30 29 32 32 32 34
46 85 100 94 94 96 98 100 98 98 99 98 96 96 100 97 87 83 78 76 84 84 83 80 90 83 86 45 41 45 50 54 53 55 55 54 56 58 54 38 32 33 33 37
9 14 46 70 87 83 92 97 97 98 98 98 99 100 100 99 94 91 94 95 93 87 76 86 82 70 54 52 58 56 52 48 40 37 39 43 44 51 62 50 39 33 36 37
10 24 42 46 86 99 98 97 96 97 93 93 82 82 85 90 95 99 98 97 96 95 83 96 81 64 47 54 56 52 51 52 52 51 52 47 41 41 44 51 46 39 40 36
42 79 76 76 99 97 95 95 97 94 95 93 83 73 73 82 98 100 98 96 96 96 97 100 83 47 60 60 57 46 42 40 40 41 43 40 34 32 35 41 44 47 40 34
83 76 72 94 80 97 100 91 96 92 74 62 62 68 80 89 98 99 97 95 95 97 97 83 56 58 66 52 47 56 58 57 52 45 35 31 34 36 34 37 48 52 39 38
97 98 96 86 84 80 64 67 75 71 64 69 81 85 89 88 100 97 95 97 97 96 93 62 60 64 60 66 81 84 78 81 75 72 48 34 28 27 29 40 54 44 43 42
99 97 83 74 55 58 60 79 90 87 87 93 96 99 100 99 97 95 96 96 96 88 59 62 63 60 72 93 100 98 89 81 74 72 54 36 30 28 38 54 50 50 53 47
98 88 87 67 69 69 66 60 64 67 71 94 95 96 96 96 96 96 96 95 83 49 50 65 77 90 93 94 93 93 91 85 73 76 78 56 36 34 46 55 55 67 66 59
97 94 64 62 65 58 60 78 94 89 95 97 100 89 97 96 96 90 78 57 34 46 71 90 96 98 96 98 95 90 76 76 72 76 89 93 88 59 50 70 80 78 60 63

GFSNW_700_rhum_132.txt.gz
RH
13 16 16 13 33 55 24 8 13 15 26 28 28 30 36 42 43 46 50 54 50 55 56 56 62 64 66 65 68 74 68 94 85 67 87 94 99 98 87 80 86 90 96 64
12 16 24 29 24 39 56 25 9 12 15 23 32 35 37 39 45 49 51 52 54 56 56 59 62 59 52 50 53 55 60 71 68 81 79 84 91 82 81 88 94 95 96 55
25 27 33 44 38 27 53 40 15 10 13 16 20 29 36 38 40 41 44 45 48 50 51 50 41 35 34 32 35 46 57 56 48 41 42 55 70 58 71 81 96 87 80 39
43 46 49 54 54 40 46 63 28 21 12 14 18 20 22 29 27 30 29 29 29 32 37 38 45 40 37 34 38 42 43 34 35 32 32 37 36 34 40 59 56 90 26 30
51 48 49 51 60 57 50 70 59 30 24 12 12 17 20 19 21 22 21 19 19 20 18 21 23 29 35 39 39 45 51 50 47 29 21 30 34 28 38 36 42 48 28 15
48 47 47 48 54 66 61 67 74 62 30 27 17 13 15 19 22 21 20 23 24 22 25 27 27 26 26 31 34 47 65 65 64 48 37 36 23 8 8 11 12 14 25 5
57 52 48 49 51 60 70 71 74 82 59 32 34 34 21 14 15 18 19 24 26 26 26 26 27 27 24 24 25 35 51 72 84 72 49 74 10 11 14 13 12 13 8 4
52 53 53 50 53 60 72 80 73 78 84 66 41 34 40 42 43 31 20 18 18 22 23 24 22 17 16 17 27 39 52 73 85 70 88 20 8 8 12 14 7 8 6 7
46 49 42 50 55 66 82 87 81 80 82 78 72 59 38 28 34 36 39 33 21 28 27 24 28 16 18 23 33 41 46 68 88 95 93 70 10 12 12 14 9 9 9 11
43 43 43 60 58 64 80 96 96 88 82 81 90 85 74 57 40 30 30 39 44 37 37 28 26 20 19 23 29 35 63 94 95 100 92 37 10 14 15 19 9 15 18 19
36 42 40 67 69 67 74 96 99 100 96 84 80 93 96 92 78 68 56 43 32 37 36 38 32 26 25 27 26 25 25 35 66 100 98 54 11 11 14 14 16 21 23 26
30 32 46 66 85 91 89 86 100 100 99 96 92 94 88 81 78 87 80 68 60 42 37 37 36 34 40 34 34 27 36 23 20 22 14 12 12 14 17 19 22 25 28 30
46 68 61 67 94 98 100 100 100 99 99 94 85 86 86 87 93 100 97 93 89 73 59 50 53 56 54 53 43 35 33 30 31 28 16 19 22 23 23 23 25 30 29 28
90 92 100 100 100 91 96 98 100 100 100 99 78 83 87 96 98 97 98 98 100 99 83 70 63 58 58 65 60 49 46 43 39 38 47 46 46 39 27 26 30 32 32 31
95 96 99 91 92 99 90 81 90 98 99 99 95 70 74 89 95 97 98 94 97 92 98 98 97 86 76 75 78 68 59 67 67 80 73 80 64 59 50 47 47 34 31 30
97 86 82 85 73 89 73 72 82 89 98 100 98 94 70 71 83 91 84 84 86 95 96 98 99 98 99 98 95 73 61 65 62 62 61 65 58 56 57 57 57 54 42 33
4 8 29 56 66 61 86 100 99 98 96 100 100 100 98 70 63 66 70 89 99 100 100 98 99 97 99 97 97 62 53 54 58 57 61 63 58 58 60 62 59 46 30 29
5 7 48 98 100 99 95 93 98 98 98 98 99 99 100 96 87 76 79 81 89 95 100 99 97 99 100 100 62 51 47 54 61 58 61 60 59 59 54 57 60 57 31 29
5 6 7 24 52 73 84 89 95 94 97 98 98 100 100 97 94 94 86 77 85 88 85 82 93 89 83 50 48 52 53 60 61 61 56 52 53 52 46 47 50 58 44 40
6 6 7 7 6 12 19 40 66 88 100 100 99 97 97 95 98 97 96 93 95 95 80 87 88 64 47 39 50 58 61 60 57 53 51 53 52 53 51 48 44 49 61 46
8 8 8 15 16 23 84 81 97 99 96 96 75 71 68 90 100 99 98 97 95 96 88 98 92 56 31 50 65 68 59 58 56 51 45 40 38 43 45 45 44 43 56 48
32 40 42 34 71 62 89 88 95 92 86 79 74 73 67 81 95 99 96 96 96 95 98 99 88 30 47 64 70 66 62 58 58 53 49 42 36 35 38 38 35 36 45 55
79 93 84 55 68 68 96 96 85 72 62 66 76 83 90 94 96 97 96 96 95 97 97 86 46 45 65 67 69 70 78 80 76 77 76 71 60 41 31 29 32 37 45 53
100 100 94 79 60 82 49 44 49 57 62 82 95 91 90 90 100 98 96 94 96 96 94 55 53 70 74 71 70 67 76 89 87 82 76 74 71 48 35 30 31 40 53 42
97 98 91 76 59 50 57 76 76 83 74 77 83 88 95 99 98 96 97 97 96 79 59 57 76 86 92 99 100 100 100 93 93 93 90 85 85 91 72 41 43 65 51 46
99 97 95 83 73 62 58 50 44 43 49 65 78 100 96 96 94 85 85 96 87 74 84 96 96 92 87 94 97 93 94 86 85 88 88 74 62 75 84 85 74 61 66 60
98 81 69 99 98 94 88 62 52 49 74 83 94 96 79 64 69 68 76 88 92 96 94 90 96 98 98 98 96 90 85 64 61 62 70 76 74 75 94 92 94 82 74 90

GFSNW_700_rhum_138.txt.gz
RH
32 37 41 46 43 43 50 47 30 10 22 24 24 24 20 21 24 25 25 28 26 34 41 46 56 59 63 62 62 60 57 59 53 54 54 61 66 73 77 76 83 100 94 59
28 37 41 47 45 36 46 52 46 13 10 20 27 28 32 35 38 40 43 43 45 45 50 55 54 54 54 52 51 52 48 54 46 64 65 62 72 63 73 83 84 91 91 48
27 40 38 43 38 30 48 51 54 46 13 12 18 31 32 34 36 38 42 45 48 51 51 46 43 42 37 32 31 35 40 40 35 26 34 47 50 42 55 78 95 86 68 29
29 40 46 40 38 32 46 55 61 60 50 24 15 15 20 30 32 30 32 33 35 36 35 32 29 26 25 25 27 31 39 36 30 25 26 31 29 28 35 47 38 81 22 26
38 47 51 44 41 39 36 51 60 65 65 62 30 18 15 18 22 24 21 21 23 23 21 22 23 25 30 32 32 36 42 51 50 35 25 29 27 18 21 24 29 30 14 8
53 50 50 49 46 43 42 36 51 62 70 70 68 42 30 18 20 21 22 26 25 20 21 27 27 29 30 35 36 41 59 61 64 56 42 41 23 8 9 9 8 7 18 4
56 53 50 49 51 49 49 42 40 54 64 75 77 74 55 36 38 32 20 20 26 28 28 27 27 26 25 24 26 42 58 74 81 76 52 61 11 12 10 9 10 12 9 8
53 46 46 43 45 49 52 51 42 46 59 71 76 80 81 91 61 45 42 43 44 44 34 37 36 23 22 19 17 27 43 79 88 66 94 30 11 13 14 13 7 10 9 14
33 29 28 31 33 43 54 50 54 49 47 63 74 82 82 79 78 84 74 54 42 40 42 46 38 32 22 22 24 23 38 61 88 98 94 79 17 13 13 12 9 10 10 16
23 20 17 18 16 20 26 56 63 72 76 67 74 83 90 94 93 94 96 90 68 55 46 44 44 45 40 28 24 29 60 100 88 98 94 65 12 19 22 21 12 13 18 22
22 20 16 14 10 11 18 44 44 62 81 59 57 68 98 100 100 100 100 98 89 84 77 68 58 50 39 34 30 28 30 43 77 100 99 75 17 17 17 16 20 24 31 44
26 22 12 9 7 6 10 17 69 86 94 94 69 65 62 86 94 100 100 100 100 92 70 68 59 50 50 47 43 40 40 30 27 29 20 18 18 20 26 25 27 42 62 57
12 4 3 3 5 12 28 33 57 54 87 99 88 76 86 99 99 99 99 99 99 98 99 98 97 96 96 92 77 69 52 40 39 41 46 52 57 66 75 84 83 76 84 81
2 1 1 3 4 10 65 100 99 75 95 99 85 70 94 94 94 92 95 99 94 96 98 99 98 98 92 93 88 89 84 78 70 69 67 79 81 92 99 98 98 82 72 68
2 2 2 3 3 10 19 24 54 85 99 82 84 59 57 57 46 62 53 55 83 95 99 99 99 100 98 95 98 94 79 71 75 67 76 98 92 81 75 74 69 62 62 56
2 2 2 2 2 2 3 3 9 36 75 61 100 51 57 59 52 37 84 77 99 100 100 100 99 99 100 97 94 85 72 55 59 67 74 81 80 66 55 59 53 51 50 50
3 3 3 2 2 2 3 5 8 20 26 50 89 97 94 79 75 70 64 72 65 70 99 99 99 97 100 98 92 76 58 46 53 67 71 68 61 54 52 52 55 54 52 50
5 4 4 4 3 3 3 4 6 20 49 87 98 95 87 75 71 75 76 80 84 90 99 94 75 83 85 98 68 47 37 48 59 61 68 58 50 49 55 60 58 55 51 46
8 8 7 7 6 5 4 5 5 6 42 99 98 95 82 68 78 91 96 95 82 76 70 65 64 67 74 32 27 27 43 60 70 57 51 54 63 65 66 63 56 49 44 39
11 11 10 9 8 8 8 8 7 8 21 91 50 24 26 29 44 60 100 94 98 94 81 76 79 53 19 17 40 54 64 69 63 57 60 72 75 79 75 69 64 60 47 42
14 13 13 13 14 13 13 16 43 78 98 67 23 17 15 25 30 42 99 89 91 95 81 83 97 68 28 46 64 70 61 65 70 78 88 90 85 83 84 79 73 79 80 72
20 24 24 21 24 33 37 53 79 76 62 33 22 26 36 45 51 79 99 96 95 86 94 98 92 58 69 65 56 67 79 86 88 91 95 94 90 88 88 88 86 84 79 74
62 57 65 38 43 49 99 84 94 54 39 47 56 64 77 79 74 100 98 98 90 96 98 92 78 75 61 55 63 70 95 100 98 94 94 98 98 96 94 96 98 94 82 76
96 85 93 77 61 80 46 36 48 71 67 63 70 76 91 91 99 97 91 92 96 96 92 71 62 50 59 80 90 100 100 100 100 98 99 96 96 97 98 93 93 92 92 93
100 98 82 76 80 56 58 77 65 64 71 82 91 89 90 90 96 88 86 82 73 66 56 63 85 98 99 98 98 97 97 97 96 97 96 96 94 89 67 63 48 44 58 77
100 92 77 88 100 90 79 70 62 65 62 62 74 86 98 83 84 75 75 76 84 73 87 98 94 96 94 94 94 94 94 95 92 95 96 95 93 79 71 57 49 30 21 28
98 92 73 81 85 77 68 96 97 99 97 95 91 95 88 92 86 77 73 75 59 56 73 88 96 95 95 84 75 69 71 61 44 67 66 48 48 55 48 50 62 56 47 29

GFSNW_700_rhum_141.txt.gz
RH
18 20 25 36 34 29 45 49 23 8 16 21 23 19 15 15 17 18 18 19 21 22 29 30 40 43 50 47 50 54 56 60 56 50 41 54 64 75 69 71 78 99 98 54
34 28 26 38 35 32 41 50 44 37 13 17 24 27 31 32 33 36 36 36 37 42 48 52 54 55 54 52 49 48 49 55 57 55 64 66 73 64 67 76 80 84 82 44
50 41 35 43 37 38 32 47 57 56 14 15 14 25 30 32 35 36 38 40 42 44 46 49 49 45 43 40 35 33 35 37 34 30 29 36 43 40 56 79 92 82 66 29
52 50 45 46 42 44 40 36 57 63 61 52 22 14 16 27 32 33 34 34 35 37 36 28 26 28 27 27 26 27 35 35 28 24 26 34 30 28 32 41 39 75 25 29
50 50 51 50 44 44 46 41 40 58 65 64 50 26 17 16 21 24 22 23 24 25 23 28 26 24 25 25 25 30 33 38 34 24 21 23 23 21 23 26 29 30 21 10
46 51 53 55 52 42 39 40 37 36 60 73 70 62 44 27 20 21 22 23 24 24 24 26 25 23 26 32 37 43 51 51 57 57 40 34 20 12 14 15 14 14 23 6
45 40 40 40 34 35 35 34 32 31 38 62 78 78 73 60 44 49 38 33 26 26 27 32 32 28 25 26 27 33 51 68 77 76 55 53 13 14 12 12 11 13 12 12
53 49 46 38 24 21 23 24 25 25 27 39 65 74 81 82 81 94 81 52 44 45 46 47 42 39 34 26 23 30 39 68 86 63 77 25 11 12 11 10 10 9 11 16
55 53 47 34 22 18 15 15 19 31 39 46 42 64 81 90 90 90 89 88 86 80 49 45 54 44 28 26 25 25 35 49 97 95 84 69 12 14 17 20 12 12 15 21
59 56 54 40 27 26 20 14 17 28 31 48 52 44 56 81 94 97 99 98 99 97 81 64 58 50 42 38 29 28 43 96 96 100 96 53 17 22 21 29 15 15 20 28
64 51 42 33 28 22 12 11 14 20 30 37 50 55 74 85 90 100 100 100 98 100 93 86 78 71 64 50 44 35 33 40 67 100 96 74 19 20 21 22 22 27 38 44
62 33 23 26 24 11 5 5 12 21 35 28 32 38 61 73 72 99 100 99 100 98 98 90 80 67 58 55 52 57 54 53 46 49 38 28 24 28 38 56 85 71 59 72
33 26 24 16 12 5 4 4 10 13 32 26 35 43 49 84 99 99 99 99 98 93 98 99 99 99 96 95 89 84 80 76 69 73 64 62 66 67 73 75 96 79 83 91
25 19 8 4 3 2 2 4 5 20 70 54 30 47 74 62 66 80 87 90 79 70 91 100 100 99 99 95 90 95 93 94 77 81 78 70 73 82 92 89 95 78 69 69
4 4 2 2 2 2 2 2 3 8 17 14 15 22 31 31 15 24 36 37 58 75 98 100 99 100 100 99 100 100 98 87 75 66 64 86 96 84 80 81 76 68 67 64
2 2 2 2 2 2 2 2 3 4 11 49 99 35 11 17 43 43 40 44 65 96 96 99 99 100 100 99 100 100 70 54 46 54 70 73 67 69 68 69 64 63 59 52
3 3 3 3 3 3 3 4 8 5 9 74 75 65 67 80 71 46 34 41 55 69 81 74 73 60 100 98 98 32 48 45 39 44 58 74 78 66 67 65 62 56 54 55
6 6 6 6 5 5 4 4 5 5 8 31 77 87 65 64 39 32 33 55 59 59 64 70 58 81 100 93 8 20 36 36 42 50 68 80 88 73 68 70 70 68 66 60
10 10 9 9 8 8 7 6 6 6 9 57 64 72 62 36 22 30 61 89 96 91 90 65 62 76 73 4 22 26 38 61 64 66 65 68 73 74 75 80 82 80 74 67
11 10 11 12 9 8 8 9 8 9 21 59 28 12 16 25 38 53 68 94 87 77 62 75 85 30 12 21 36 54 60 74 70 55 57 68 76 84 88 91 88 84 78 74
12 12 12 11 10 11 13 14 22 48 84 50 21 17 16 27 41 62 86 93 83 94 67 80 80 68 41 45 62 72 78 50 48 65 80 80 80 78 81 87 93 90 86 85
18 14 12 12 18 22 25 43 74 56 49 40 23 30 36 45 53 75 99 98 96 82 93 98 85 69 69 77 93 95 68 70 85 91 94 93 92 95 95 100 97 97 92 82
39 46 34 18 31 57 94 81 68 59 50 54 68 91 95 91 95 99 96 90 93 90 99 92 78 82 89 96 88 92 94 98 100 100 99 98 97 96 98 97 98 92 97 99
65 76 69 46 46 46 40 55 63 67 74 86 82 83 100 99 100 88 89 69 82 91 89 85 96 89 99 100 100 98 98 97 97 96 98 98 99 100 98 89 72 75 60 60
73 76 67 67 61 49 53 56 72 87 99 97 97 79 73 80 82 88 87 84 87 76 80 80 94 100 96 95 95 96 94 94 94 96 92 93 95 95 95 95 90 86 74 54
87 86 63 44 55 51 53 57 68 72 72 93 98 94 95 82 72 70 71 70 78 71 81 90 97 86 88 97 93 94 76 63 58 40 37 34 45 76 81 90 62 56 53 62
96 58 45 52 52 52 61 80 73 87 94 92 90 96 92 80 86 92 76 75 80 77 80 90 79 73 67 59 69 70 53 52 46 41 33 28 25 22 22 24 45 66 31 28

GFSNW_700_rhum_144.txt.gz
RH
43 48 45 28 38 37 42 46 32 16 15 21 21 15 14 15 18 17 17 18 19 20 22 21 25 30 41 32 34 44 46 47 48 47 38 33 42 44 59 66 78 82 82 54
40 49 45 33 40 38 32 46 52 40 11 18 23 26 28 27 28 29 34 30 32 35 40 46 49 48 49 48 44 43 42 45 64 49 53 54 58 49 56 66 71 84 65 52
41 47 43 39 43 41 38 31 50 47 42 31 15 24 29 31 33 34 34 38 40 41 42 39 37 40 39 38 35 29 26 26 25 32 31 30 36 28 32 56 92 69 71 51
43 43 44 41 42 38 34 34 32 48 60 60 42 20 15 24 29 31 31 31 33 34 34 29 27 26 27 25 23 26 36 32 24 19 20 25 24 27 37 41 23 56 26 34
45 46 42 36 36 34 30 29 32 26 46 60 61 34 20 15 18 21 21 20 24 25 26 32 30 26 24 26 24 27 32 48 40 30 23 25 26 19 19 25 37 42 32 16
44 50 49 45 40 41 33 23 23 24 25 33 56 62 53 35 23 26 20 21 22 23 25 26 27 27 27 29 33 38 47 48 54 61 42 43 33 10 12 14 14 16 34 8
50 52 54 52 48 45 38 27 23 20 21 22 32 52 70 69 55 40 58 50 37 35 32 30 31 34 36 34 28 34 52 63 73 84 54 60 17 14 17 13 10 13 10 12
54 62 59 58 53 49 45 39 28 21 19 19 24 42 38 62 79 77 79 88 66 56 55 54 48 41 39 35 33 37 46 69 88 78 87 32 15 17 18 21 14 13 11 15
58 68 70 64 60 53 41 38 35 18 18 24 21 23 41 65 76 88 88 87 87 85 81 86 54 47 56 48 27 27 30 50 90 92 89 55 17 17 20 23 21 19 24 30
64 70 73 76 66 49 35 28 30 26 13 22 27 31 30 27 43 79 94 87 94 96 97 94 84 72 63 50 39 41 57 62 86 98 91 64 42 37 33 35 20 25 35 43
54 56 71 76 68 45 37 28 22 24 24 21 28 29 34 35 54 96 75 81 85 96 93 93 89 84 71 64 60 55 44 48 67 100 98 77 27 31 27 27 34 60 78 78
95 80 76 79 66 31 19 29 27 16 19 26 22 20 34 51 59 64 71 80 98 98 92 92 94 85 80 72 63 62 56 54 51 59 55 56 58 63 68 65 78 85 80 76
100 99 84 79 48 23 22 15 10 59 25 19 30 23 28 40 50 73 66 82 97 99 100 98 100 100 99 96 86 82 78 74 77 81 74 63 62 70 76 82 83 85 91 92
100 97 75 52 24 13 7 6 8 15 18 28 24 34 23 30 56 39 81 100 99 96 97 93 94 99 100 99 100 100 96 80 66 78 60 56 72 85 87 88 90 84 79 77
81 49 37 14 7 5 4 3 4 10 19 21 21 19 14 14 16 21 23 42 91 90 86 79 100 100 97 98 100 91 44 56 82 70 65 92 89 67 58 75 81 78 78 72
9 5 4 4 3 3 3 3 4 4 3 5 11 28 21 11 6 3 6 17 29 40 41 55 86 93 100 98 95 86 60 52 55 76 75 68 62 57 55 64 64 61 55 59
6 6 4 4 4 4 4 5 8 8 12 25 34 30 12 13 21 32 46 25 26 34 58 72 92 96 100 100 96 10 37 45 60 45 51 50 43 52 56 60 59 56 58 61
64 46 25 14 6 6 7 6 6 7 8 16 32 23 23 43 48 41 35 23 15 25 29 44 41 60 92 90 7 16 20 27 38 41 60 69 78 69 66 68 66 63 68 74
39 26 16 12 10 9 9 9 8 8 11 23 28 30 15 16 14 23 31 43 61 62 62 53 72 93 90 16 28 18 21 38 45 56 69 48 48 61 70 77 82 82 85 89
45 22 12 11 10 9 10 12 13 13 21 17 15 13 19 30 39 54 67 87 92 94 78 80 83 76 16 24 30 39 44 60 75 70 46 42 46 60 75 81 86 86 84 81
13 13 14 15 14 14 18 18 28 60 76 39 19 32 43 47 56 78 97 99 94 98 76 82 83 68 39 50 56 63 74 94 90 60 42 55 66 81 85 85 92 93 88 86
15 15 15 16 23 26 24 50 48 46 54 60 44 36 48 56 61 91 100 92 88 62 86 98 84 58 61 69 76 80 92 86 61 76 95 100 100 97 98 98 99 96 97 97
20 20 24 21 31 65 65 67 63 94 66 62 84 95 98 100 100 98 94 94 96 81 92 83 69 77 81 78 94 96 89 94 93 93 96 97 97 99 94 89 97 96 97 94
42 44 45 38 41 31 35 43 53 65 99 100 100 99 95 93 84 91 91 71 72 81 74 65 61 71 88 96 96 100 95 90 90 96 94 90 83 74 63 59 70 88 95 92
65 51 37 25 24 20 23 29 50 80 99 99 98 96 92 91 95 92 86 78 66 74 73 81 97 92 98 97 92 86 82 72 75 66 60 54 54 38 32 32 53 58 64 83
92 66 38 25 25 24 23 28 44 84 96 97 97 93 92 88 84 78 71 65 60 65 94 93 84 83 88 91 78 65 60 47 46 46 44 44 41 37 35 27 25 23 25 38
92 46 35 32 33 28 31 30 37 72 99 96 95 95 90 85 79 84 97 83 81 78 77 68 74 92 72 72 77 58 45 35 34 38 45 41 34 34 32 30 29 26 20 17

GFSNW_700_rhum_147.txt.gz
RH
31 39 38 37 39 37 32 49 40 28 16 20 19 18 22 25 22 17 16 20 20 21 20 21 23 50 33 21 24 35 37 51 69 68 38 32 27 58 60 49 58 64 65 62
26 35 38 38 36 31 29 29 48 20 15 17 22 23 24 23 24 28 32 27 28 28 34 54 47 38 44 44 43 43 42 53 64 65 52 43 49 43 46 67 76 70 56 49
21 30 37 35 38 32 30 26 25 45 54 40 17 24 28 29 29 31 34 36 38 39 40 38 38 42 37 33 30 27 24 30 39 44 47 55 43 28 26 66 80 51 51 46
14 25 36 38 35 33 38 27 24 22 32 52 54 29 18 29 29 30 30 30 30 31 32 30 28 26 28 27 23 24 29 33 30 20 20 23 24 28 52 78 36 48 32 31
10 19 41 39 39 42 40 35 26 22 22 23 46 58 33 18 20 26 25 23 24 25 25 26 25 23 23 29 20 24 28 47 43 31 43 45 31 19 25 39 53 65 65 30
10 12 41 47 42 42 44 38 36 29 25 20 22 42 55 53 34 26 23 24 24 26 30 26 26 23 23 28 29 30 43 43 74 64 56 45 42 27 34 32 25 29 52 17
11 15 34 44 48 48 49 47 42 33 26 20 17 18 37 62 67 53 39 46 58 52 38 34 34 34 34 36 39 45 90 86 92 78 66 56 34 23 20 23 18 22 17 19
12 16 30 47 56 56 57 52 47 40 34 18 17 15 15 21 33 68 76 72 76 83 73 64 76 67 56 50 42 45 48 90 84 78 59 41 35 18 17 18 17 19 17 29
18 19 38 63 68 66 61 59 49 43 40 28 22 31 16 14 20 35 50 70 81 85 85 80 79 64 49 55 44 33 35 48 88 80 81 56 36 35 47 40 32 27 28 47
44 33 53 60 59 68 68 63 57 39 34 32 22 24 36 38 22 21 25 48 74 80 89 98 91 79 73 61 47 47 52 67 92 95 84 73 48 51 40 41 28 25 37 54
68 64 58 50 60 63 71 64 59 47 36 32 28 30 30 27 37 38 50 58 52 48 77 93 96 87 74 70 62 63 58 66 86 99 91 84 46 44 52 53 60 64 72 78
75 68 72 80 83 80 76 67 50 41 42 34 31 28 32 35 26 43 59 68 63 76 82 88 92 84 79 73 73 68 66 59 66 61 57 55 55 59 65 72 74 70 72 77
85 74 77 92 95 97 82 64 41 36 32 32 36 33 36 36 45 49 51 42 53 59 82 93 98 100 98 97 89 79 79 72 69 70 68 69 72 62 76 80 90 92 80 78
92 91 96 100 96 98 61 45 77 31 20 25 28 30 35 36 32 42 58 58 60 88 97 100 100 100 96 94 79 86 90 84 80 78 59 47 67 88 95 92 81 66 50 50
100 100 99 100 94 68 22 38 52 18 28 31 24 25 31 28 28 34 46 60 80 98 100 100 100 100 98 84 81 71 34 38 64 52 50 57 60 56 60 57 50 39 33 32
97 97 95 78 34 13 11 23 27 14 12 15 12 19 24 18 16 30 68 90 78 44 25 45 86 92 96 98 98 85 57 62 58 66 40 41 46 40 35 41 38 42 36 37
76 52 46 30 8 6 6 8 12 15 18 64 54 30 11 8 7 17 31 26 24 26 39 68 75 99 100 100 97 63 32 35 40 43 50 48 39 43 71 72 66 60 60 66
37 32 31 18 13 16 18 15 11 9 14 62 64 24 20 20 28 34 61 63 76 73 72 67 92 87 100 99 54 33 29 34 29 37 48 49 58 70 49 41 52 62 72 80
88 83 66 63 69 61 53 56 52 28 22 50 30 18 14 11 8 10 52 86 78 63 59 62 61 59 84 46 40 41 28 22 28 40 60 62 66 46 47 57 66 72 76 85
70 65 55 51 48 35 20 14 14 12 14 23 20 16 18 18 24 36 32 49 64 62 53 57 40 22 12 15 28 16 20 36 40 55 70 82 63 64 81 86 95 92 89 85
52 30 22 26 24 22 23 25 27 61 68 29 16 19 34 60 60 78 79 71 77 88 83 69 79 51 14 20 28 37 49 58 63 70 82 77 52 64 89 98 96 84 85 92
21 20 20 19 27 27 25 69 39 34 82 56 54 68 75 91 88 98 94 88 87 77 92 97 86 59 42 54 54 60 79 81 95 91 91 97 99 98 96 92 90 83 74 72
19 21 23 19 29 49 45 57 65 96 92 68 86 92 93 96 93 99 89 91 89 82 95 89 67 66 61 60 81 91 99 96 97 94 86 80 84 81 68 62 51 42 43 62
32 36 33 27 28 23 22 19 22 33 47 74 100 100 97 94 97 95 92 91 96 96 95 84 72 67 57 74 99 99 96 96 87 68 61 56 51 51 48 44 45 40 34 31
54 39 31 21 20 16 15 15 17 23 31 56 88 98 99 96 95 86 74 84 72 70 62 62 68 76 76 97 97 96 96 90 76 72 67 61 55 50 43 37 37 36 34 34
74 53 30 24 22 22 22 23 25 28 38 67 93 96 95 88 78 78 88 84 73 62 69 68 76 85 91 97 75 49 56 60 54 50 42 42 39 36 28 27 28 28 32 31
79 44 32 33 32 32 36 37 40 44 56 74 91 98 93 82 91 94 92 87 75 70 68 80 86 85 73 59 45 41 33 34 34 32 28 29 29 28 26 23 23 24 27 29